Change the Weather History Date:

Wednesday, September 5, 2012

  Actual Average Record
Temperature  
Mean Temperature 71 °F -  
Max Temperature 78 °F 72 °F 82 °F (2014)
Min Temperature 64 °F 55 °F 42 °F (1997)
Cooling Degree Days 6    
Growing Degree Days 21 (Base 50)    
Moisture  
Dew Point 68 °F    
Average Humidity 88    
Maximum Humidity 94    
Minimum Humidity 61    
Precipitation  
Precipitation 0.46 in - - ()
Sea Level Pressure  
Sea Level Pressure 29.84 in    
Wind  
Wind Speed 8 mph (West)    
Max Wind Speed 12 mph    
Max Gust Speed 18 mph    
Visibility 6 miles    
Events Rain , Thunderstorm    
Averages and records for this station are not official NWS values.
T = Trace of Precipitation, MM = Missing Value Source: NWS Daily Summary

Daily Weather History Graph

Daily Weather History Graph

Search for Another Location

Airport or City:

Trip Planner

Search our weather history database for the weather conditions in past years. The results will help you decide how hot, cold, wet, or windy it might be!

Date:

Astronomy

Sep. 05, 2012 Rise Set
Actual Time 6:23 AM EDT 7:18 PM EDT
Civil Twilight 5:55 AM EDT 7:46 PM EDT
Nautical Twilight 5:21 AM EDT 8:19 PM EDT
Astronomical Twilight 4:46 AM EDT 8:54 PM EDT
Moon 9:41 PM EDT 11:29 AM EDT
Length of Visible Light 13h 51m
Length of Day
12h 54m
Waning Gibbous, 76% of the Moon is Illuminated
Sep 5
Waning Gibbous
Sep 8
Last Quarter
Sep 15
New
Sep 22
First Quarter
Sep 29
Full

Hourly Weather History & Observations

Time (EDT) Temp. Dew Point Humidity Pressure Visibility Wind Dir Wind Speed Gust Speed Precip Events Conditions
12:15 AM 73.4 °F 71.6 °F 94% 29.88 in 5.0 mi South 9.2 mph 17.3 mph N/A   Overcast
12:35 AM 73.4 °F 71.6 °F 94% 29.88 in 4.0 mi South 11.5 mph - N/A   Overcast
12:55 AM 73.4 °F 71.6 °F 94% 29.87 in 5.0 mi South 11.5 mph 17.3 mph 0.02 in   Overcast
1:35 AM 73.4 °F 71.6 °F 94% 29.86 in 4.0 mi SSW 8.1 mph 18.4 mph 0.07 in   Overcast
1:55 AM 73.4 °F 71.6 °F 94% 29.85 in 5.0 mi South 11.5 mph - 0.16 in   Overcast
2:15 AM 73.4 °F 71.6 °F 94% 29.85 in 5.0 mi SSW 10.4 mph 17.3 mph 0.07 in   Overcast
2:35 AM 73.4 °F 71.6 °F 94% 29.84 in 5.0 mi SSW 11.5 mph 17.3 mph 0.14 in   Overcast
2:55 AM 73.4 °F 71.6 °F 94% 29.84 in 5.0 mi SSW 6.9 mph - 0.19 in   Overcast
3:15 AM 73.4 °F 71.6 °F 94% 29.83 in 4.0 mi SSW 10.4 mph - 0.06 in   Overcast
3:35 AM 73.4 °F 71.6 °F 94% 29.82 in 5.0 mi SSW 9.2 mph 17.3 mph 0.08 in   Overcast
3:55 AM 73.4 °F 71.6 °F 94% 29.82 in 5.0 mi SSW 8.1 mph 18.4 mph 0.08 in   Overcast
4:15 AM 73.4 °F 71.6 °F 94% 29.82 in 4.0 mi SW 4.6 mph 16.1 mph N/A   Overcast
4:35 AM 73.4 °F 71.6 °F 94% 29.82 in 5.0 mi SW 4.6 mph 16.1 mph 0.01 in   Overcast
4:55 AM 73.4 °F 71.6 °F 94% 29.82 in 4.0 mi SW 5.8 mph - 0.01 in   Overcast
5:15 AM 73.4 °F 69.8 °F 88% 29.82 in 5.0 mi SW 8.1 mph - N/A   Overcast
5:35 AM 73.4 °F 69.8 °F 88% 29.82 in 4.0 mi SW 6.9 mph - N/A   Overcast
5:45 AM 73.4 °F 71.6 °F 94% 29.82 in 3.0 mi WSW 9.2 mph - N/A Rain Light Rain
6:45 AM 73.4 °F 71.6 °F 94% 29.82 in 2.0 mi SW 6.9 mph - N/A Rain Light Rain
7:45 AM 73.4 °F 71.6 °F 94% 29.81 in 2.0 mi WSW 4.6 mph - N/A Rain Light Rain
8:45 AM 73.4 °F 71.6 °F 94% 29.82 in 3.0 mi WSW 4.6 mph - N/A   Overcast
9:19 AM 73.4 °F 71.6 °F 94% 29.82 in 3.0 mi WSW 4.6 mph - N/A   Light Drizzle
9:45 AM 75.2 °F 71.6 °F 89% 29.81 in 2.0 mi WSW 4.6 mph - N/A Rain Light Rain
10:45 AM 73.4 °F 71.6 °F 94% 29.83 in 2.0 mi West 6.9 mph - N/A Rain Light Rain
10:54 AM 73.4 °F 71.6 °F 94% 29.82 in 2.0 mi West 4.6 mph - N/A Rain , Thunderstorm Light Thunderstorms and Rain
11:50 AM 71.6 °F 68.0 °F 88% 29.83 in 5.0 mi NNW 5.8 mph - N/A Rain Light Rain
12:15 PM 71.6 °F 69.8 °F 94% 29.83 in 8.0 mi North 4.6 mph - N/A   Mostly Cloudy
12:50 PM 73.4 °F 68.0 °F 83% 29.83 in 10.0 mi North 6.9 mph - N/A   Mostly Cloudy
1:45 PM 73.4 °F 66.2 °F 78% 29.83 in 10.0 mi NNW 4.6 mph - N/A   Mostly Cloudy
2:45 PM 77.0 °F 66.2 °F 69% 29.83 in 10.0 mi WNW 6.9 mph - N/A   Mostly Cloudy
3:50 PM 78.8 °F 66.2 °F 65% 29.82 in 10.0 mi WNW 4.6 mph - N/A   Mostly Cloudy
4:45 PM 78.8 °F 66.2 °F 65% 29.81 in 10.0 mi North 8.1 mph - N/A   Scattered Clouds
5:45 PM 78.8 °F 64.4 °F 61% 29.83 in 10.0 mi North 9.2 mph - N/A   Partly Cloudy
6:45 PM 75.2 °F 64.4 °F 69% 29.84 in 10.0 mi NW 3.5 mph - N/A   Scattered Clouds
7:45 PM 71.6 °F 64.4 °F 78% 29.86 in 10.0 mi North 5.8 mph - N/A   Scattered Clouds
9:15 PM 69.8 °F 64.4 °F 83% 29.87 in 10.0 mi NNW 3.5 mph - N/A   Clear
9:35 PM 68.0 °F 62.6 °F 83% 29.87 in 10.0 mi North 3.5 mph - N/A   Clear
9:55 PM 66.2 °F 62.6 °F 88% 29.87 in 10.0 mi Calm Calm - N/A   Clear
10:15 PM 66.2 °F 60.8 °F 83% 29.87 in 10.0 mi North 4.6 mph - N/A   Clear
10:35 PM 64.4 °F 60.8 °F 88% 29.87 in 10.0 mi Calm Calm - N/A   Clear
10:55 PM 64.4 °F 62.6 °F 94% 29.87 in 10.0 mi Calm Calm - N/A   Scattered Clouds
11:15 PM 64.4 °F 60.8 °F 88% 29.87 in 10.0 mi Calm Calm - N/A   Overcast
11:35 PM 66.2 °F 62.6 °F 88% 29.87 in 10.0 mi North 3.5 mph - N/A   Overcast
11:55 PM 64.4 °F 60.8 °F 88% 29.87 in 10.0 mi North 4.6 mph - N/A   Mostly Cloudy